BREEZE-M DEB (TANK)

基本信息
目录编号:
37808
目录名称:
BREEZE-M DEB (TANK)
国际标识:
2011-048C
轨道中心:
EARTH
物体状态:
在轨
发射日期:
2011-09-20 UTC
轨道信息
数据来源: 国际轨道数据
星历时间: 2026-07-13T22:41:32+0800
半长轴: 24332.689km
偏心率: 0.7010489
轨道倾角: 48.054°
近地点辐角: 207.703°
升交点赤经: 51.629°
平近点角: 84.060°
近地点: 896.147km
远地点: 35012.957km
周期: 629.571分钟
每日圈数: 2.287271
详细信息
发射场:
TTMTR
轨道高度:
LEO
数据来源:
AOE Integration Group
参考系:
TEME
时间系统:
UTC
历元类型:
SGP4
2D轨道图
3D轨道图
轨道高度分析图
轨道倾角分析图
轨道综合分析图
查看轨道综合分析图